When you browse on this site, cookies collect data to enhance your experience and personalize the content and advertising you see.
Visit our Privacy Policy to learn more. By continuing to use the site, you agree to this use of cookies and data.
  • In Portugal
  • List of Countries
  • For 7 days
  • Water Temperature
  • Satellite Maps
  • Weather Map
  • Weather Widgets
  • user-avatar
    Login

    Hourly Weather Arbela

    Today, 24 March, Sunday

    Time Temperature Precipitation Wind Pressure Humidity
    00:00 +13°C° 0 mm 2 mps 724 mmHg 56%
    01:00 +12°C° 0 mm 2 mps 723 mmHg 57%
    02:00 +11°C° 0 mm 3 mps 723 mmHg 58%
    03:00 +11°C° 0 mm 3 mps 722 mmHg 58%
    04:00 +11°C° 0 mm 3 mps 722 mmHg 57%
    05:00 +10°C° 0 mm 3 mps 722 mmHg 56%
    06:00 +10°C° 0 mm 4 mps 722 mmHg 55%
    07:00 +12°C° 0 mm 4 mps 721 mmHg 51%
    08:00 +14°C° 0 mm 5 mps 721 mmHg 46%
    09:00 +16°C° 0 mm 5 mps 721 mmHg 44%
    10:00 +15°C° 0.3 mm 6 mps 720 mmHg 50%
    11:00 +15°C° 0.3 mm 6 mps 720 mmHg 55%
    12:00 +14°C° 0.3 mm 7 mps 719 mmHg 61%
    13:00 +15°C° 0.1 mm 7 mps 718 mmHg 58%
    14:00 +16°C° 0.1 mm 7 mps 718 mmHg 56%
    15:00 +17°C° 0.1 mm 7 mps 717 mmHg 54%
    16:00 +16°C° 0.8 mm 6 mps 717 mmHg 60%
    17:00 +15°C° 0.8 mm 6 mps 716 mmHg 66%
    18:00 +14°C° 0.8 mm 6 mps 716 mmHg 72%
    19:00 +14°C° 0.3 mm 5 mps 716 mmHg 75%
    20:00 +13°C° 0.3 mm 5 mps 716 mmHg 78%
    21:00 +13°C° 0.3 mm 4 mps 716 mmHg 81%
    22:00 +13°C° 0.5 mm 4 mps 716 mmHg 83%
    23:00 +13°C° 0.5 mm 4 mps 715 mmHg 85%

    Tomorrow, 25 March, Monday

    Time Temperature Precipitation Wind Pressure Humidity
    00:00 +13°C° 0.5 mm 5 mps 715 mmHg 87%
    01:00 +13°C° 1.6 mm 5 mps 714 mmHg 85%
    02:00 +13°C° 1.6 mm 5 mps 713 mmHg 83%
    03:00 +13°C° 1.6 mm 6 mps 713 mmHg 81%
    04:00 +13°C° 2 mm 6 mps 712 mmHg 83%
    05:00 +13°C° 2 mm 6 mps 712 mmHg 84%
    06:00 +13°C° 2 mm 5 mps 711 mmHg 86%
    07:00 +13°C° 3.9 mm 5 mps 711 mmHg 87%
    08:00 +13°C° 3.9 mm 4 mps 711 mmHg 88%
    09:00 +13°C° 3.9 mm 3 mps 711 mmHg 89%
    10:00 +13°C° 6.4 mm 4 mps 711 mmHg 89%
    11:00 +13°C° 6.4 mm 5 mps 712 mmHg 89%
    12:00 +13°C° 6.4 mm 6 mps 713 mmHg 89%
    13:00 +14°C° 1.3 mm 6 mps 713 mmHg 86%
    14:00 +14°C° 1.3 mm 5 mps 714 mmHg 82%
    15:00 +15°C° 1.3 mm 5 mps 714 mmHg 79%
    16:00 +15°C° 1.6 mm 4 mps 715 mmHg 80%
    17:00 +14°C° 1.6 mm 4 mps 716 mmHg 82%
    18:00 +13°C° 1.6 mm 4 mps 717 mmHg 83%
    19:00 +13°C° 1.6 mm 4 mps 718 mmHg 85%
    20:00 +12°C° 1.6 mm 3 mps 719 mmHg 87%
    21:00 +11°C° 1.6 mm 3 mps 719 mmHg 89%
    22:00 +12°C° 0.2 mm 2 mps 720 mmHg 88%
    23:00 +10°C° 0.2 mm 2 mps 720 mmHg 88%

    Day after tomorrow, 26 March, Tuesday

    Time Temperature Precipitation Wind Pressure Humidity
    00:00 +11°C° 0.2 mm 1 mps 720 mmHg 87%
    01:00 +10°C° 0.6 mm 2 mps 720 mmHg 85%
    02:00 +10°C° 0.7 mm 3 mps 720 mmHg 82%
    03:00 +10°C° 0.7 mm 3 mps 720 mmHg 80%
    04:00 +10°C° 0 mm 3 mps 720 mmHg 76%
    05:00 +10°C° 0 mm 3 mps 720 mmHg 73%
    06:00 +10°C° 0 mm 3 mps 720 mmHg 69%
    07:00 +12°C° 0 mm 2 mps 721 mmHg 65%
    08:00 +14°C° 0 mm 2 mps 721 mmHg 62%
    09:00 +15°C° 0 mm 2 mps 721 mmHg 58%
    10:00 +16°C° 0 mm 2 mps 721 mmHg 53%
    11:00 +18°C° 0 mm 2 mps 720 mmHg 48%
    12:00 +19°C° 0 mm 2 mps 720 mmHg 42%
    13:00 +19°C° 0 mm 3 mps 720 mmHg 44%
    14:00 +19°C° 0 mm 4 mps 719 mmHg 46%
    15:00 +19°C° 0 mm 4 mps 719 mmHg 48%
    16:00 +18°C° 0.4 mm 4 mps 719 mmHg 59%
    17:00 +15°C° 0.4 mm 4 mps 720 mmHg 69%
    18:00 +13°C° 0.4 mm 3 mps 720 mmHg 80%
    19:00 +13°C° 0.9 mm 3 mps 721 mmHg 83%
    20:00 +12°C° 0.9 mm 3 mps 722 mmHg 86%
    21:00 +12°C° 0.9 mm 3 mps 722 mmHg 89%
    22:00 +11°C° 0.9 mm 3 mps 723 mmHg 90%
    23:00 +11°C° 0.9 mm 3 mps 723 mmHg 92%

    27 March, Wednesday

    Time Temperature Precipitation Wind Pressure Humidity
    00:00 +10°C° 0.9 mm 3 mps 723 mmHg 93%
    01:00 +10°C° 0.7 mm 3 mps 723 mmHg 91%
    02:00 +10°C° 0.7 mm 3 mps 723 mmHg 90%
    03:00 +10°C° 0.7 mm 3 mps 724 mmHg 89%
    04:00 +10°C° 0.8 mm 3 mps 724 mmHg 89%
    05:00 +10°C° 0.8 mm 3 mps 724 mmHg 88%
    06:00 +10°C° 0.8 mm 3 mps 725 mmHg 87%
    07:00 +10°C° 0.5 mm 3 mps 725 mmHg 86%
    08:00 +11°C° 0.5 mm 3 mps 726 mmHg 85%
    09:00 +11°C° 0.5 mm 3 mps 726 mmHg 84%
    10:00 +12°C° 0.3 mm 3 mps 726 mmHg 82%
    11:00 +12°C° 0.3 mm 3 mps 726 mmHg 79%
    12:00 +14°C° 0.3 mm 2 mps 727 mmHg 77%
    13:00 +14°C° 0.5 mm 2 mps 726 mmHg 75%
    14:00 +15°C° 0.5 mm 2 mps 726 mmHg 74%
    15:00 +15°C° 0.5 mm 2 mps 726 mmHg 72%
    16:00 +15°C° 0.5 mm 2 mps 726 mmHg 74%
    17:00 +14°C° 0.5 mm 2 mps 726 mmHg 76%
    18:00 +14°C° 0.5 mm 2 mps 727 mmHg 78%
    19:00 +13°C° 0.3 mm 2 mps 727 mmHg 79%
    20:00 +13°C° 0.3 mm 2 mps 727 mmHg 80%
    21:00 +11°C° 0.3 mm 3 mps 728 mmHg 80%
    22:00 +11°C° 0.1 mm 3 mps 727 mmHg 81%
    23:00 +10°C° 0.1 mm 3 mps 727 mmHg 82%

    28 March, Thursday

    Time Temperature Precipitation Wind Pressure Humidity
    00:00 +10°C° 0.1 mm 3 mps 727 mmHg 83%
    01:00 +10°C° 0.3 mm 3 mps 727 mmHg 83%
    02:00 +10°C° 0.3 mm 3 mps 727 mmHg 84%
    03:00 +10°C° 0.3 mm 3 mps 727 mmHg 84%
    04:00 +10°C° 0.3 mm 3 mps 727 mmHg 84%
    05:00 +9°C° 0.3 mm 3 mps 727 mmHg 85%
    06:00 +9°C° 0.3 mm 2 mps 727 mmHg 85%
    07:00 +10°C° 1 mm 3 mps 727 mmHg 85%
    08:00 +10°C° 1 mm 3 mps 727 mmHg 84%
    09:00 +11°C° 1 mm 3 mps 727 mmHg 84%
    10:00 +11°C° 0.7 mm 3 mps 727 mmHg 80%
    11:00 +12°C° 0.7 mm 3 mps 727 mmHg 76%
    12:00 +13°C° 0.7 mm 4 mps 727 mmHg 72%
    13:00 +14°C° 0.2 mm 3 mps 726 mmHg 66%
    14:00 +16°C° 0.2 mm 2 mps 726 mmHg 60%
    15:00 +16°C° 0.2 mm 0 mps 726 mmHg 54%
    16:00 +15°C° 0.4 mm 0 mps 726 mmHg 60%
    17:00 +15°C° 0.4 mm 1 mps 726 mmHg 65%
    18:00 +15°C° 0.4 mm 1 mps 726 mmHg 71%
    19:00 +14°C° 0.3 mm 1 mps 726 mmHg 72%
    20:00 +13°C° 0.3 mm 1 mps 727 mmHg 73%
    21:00 +12°C° 0.3 mm 1 mps 727 mmHg 75%
    22:00 +12°C° 0 mm 1 mps 727 mmHg 75%
    23:00 +12°C° 0 mm 1 mps 727 mmHg 75%

    29 March, Friday

    Time Temperature Precipitation Wind Pressure Humidity
    00:00 +11°C° 0 mm 1 mps 727 mmHg 75%
    01:00 +10°C° 0 mm 2 mps 726 mmHg 74%
    02:00 +10°C° 0 mm 2 mps 726 mmHg 73%
    03:00 +10°C° 0 mm 2 mps 726 mmHg 72%
    04:00 +10°C° 0 mm 2 mps 726 mmHg 72%
    05:00 +9°C° 0 mm 2 mps 726 mmHg 72%
    06:00 +9°C° 0 mm 2 mps 727 mmHg 71%
    07:00 +12°C° 0 mm 2 mps 727 mmHg 67%
    08:00 +14°C° 0 mm 2 mps 727 mmHg 62%
    09:00 +16°C° 0 mm 2 mps 727 mmHg 57%
    10:00 +17°C° 0.1 mm 3 mps 727 mmHg 54%
    11:00 +18°C° 0.1 mm 3 mps 727 mmHg 51%
    12:00 +19°C° 0.1 mm 3 mps 726 mmHg 48%
    13:00 +19°C° 0.2 mm 3 mps 726 mmHg 48%
    14:00 +19°C° 0.2 mm 3 mps 725 mmHg 47%
    15:00 +19°C° 0.2 mm 3 mps 724 mmHg 46%
    16:00 +18°C° 0.3 mm 2 mps 724 mmHg 53%
    17:00 +17°C° 0.3 mm 2 mps 724 mmHg 61%
    18:00 +16°C° 0.3 mm 1 mps 724 mmHg 68%
    19:00 +15°C° 0.3 mm 2 mps 725 mmHg 71%
    20:00 +14°C° 0.3 mm 3 mps 725 mmHg 73%
    21:00 +13°C° 0.3 mm 3 mps 725 mmHg 76%
    22:00 +13°C° 0.1 mm 4 mps 725 mmHg 76%
    23:00 +12°C° 0.1 mm 4 mps 724 mmHg 76%
    Show more